Location: Newark
(51.8042°N, 2.6377°W)
Time: 20:51:57
(UTC+00:00)

N. Korean satellite - Visible Passes

Search period start: 15 December 2019 00:00
Search period end: 25 December 2019 00:00
Orbit: 455 x 507 km, 97.2° (Epoch: 14 December)

Date Brightness Start Highest point End Pass type
(mag) Time Alt. Az. Time Alt. Az. Time Alt. Az.
15 Dec 7.1 06:00:35 10° NNE 06:04:05 59° E 06:07:30 10° S visible
15 Dec 6.8 16:40:52 10° SSE 16:44:26 52° ENE 16:48:00 10° N visible
15 Dec 9.8 18:15:49 10° SW 18:18:08 16° W 18:20:26 10° NW visible
16 Dec 8.5 05:35:23 10° NNE 05:38:32 30° E 05:41:37 10° SSE visible
16 Dec 7.6 07:08:57 10° N 07:11:50 24° WNW 07:14:41 10° WSW visible
16 Dec 8.9 17:49:18 10° SSW 17:52:30 28° W 17:55:41 10° NW visible
17 Dec 9.5 05:10:34 10° NE 05:12:53 17° E 05:15:10 10° SE visible
17 Dec 6.8 06:43:10 10° N 06:46:32 43° WNW 06:49:49 10° SW visible
17 Dec 7.5 17:23:21 10° S 17:26:57 52° W 17:30:31 10° NNW visible
18 Dec 6.4 06:17:37 10° NNE 06:21:08 86° W 06:24:35 10° SSW visible
18 Dec 6.5 16:57:48 10° SSE 17:01:28 81° ENE 17:05:07 10° NNW visible
18 Dec 10.2 18:34:41 10° W 18:35:23 10° W 18:36:04 10° WNW visible
19 Dec 7.5 05:52:15 10° NNE 05:55:39 46° E 05:58:58 10° S visible
19 Dec 8.0 07:26:25 10° NNW 07:28:43 17° WNW 07:31:00 10° WSW visible
19 Dec 9.6 18:07:02 10° SW 18:09:40 19° W 18:12:18 10° NW visible
20 Dec 8.9 05:27:08 10° NE 05:30:04 24° E 05:32:56 10° SSE visible
20 Dec 7.3 07:00:26 10° N 07:03:28 28° WNW 07:06:28 10° SW visible
20 Dec 8.5 17:40:43 10° SSW 17:44:03 33° W 17:47:22 10° NNW visible
21 Dec 9.8 05:02:34 10° ENE 05:04:23 14° E 05:06:10 10° ESE visible
21 Dec 6.5 06:34:43 10° N 06:38:08 53° WNW 06:41:29 10° SSW visible
21 Dec 7.1 17:14:54 10° S 17:18:32 64° W 17:22:07 10° NNW visible
22 Dec 6.6 06:09:13 10° NNE 06:12:42 76° ESE 06:16:08 10° S visible
22 Dec 6.5 16:49:29 10° SSE 16:53:05 65° ENE 16:56:39 10° N visible
22 Dec 10.0 18:25:16 10° WSW 18:26:52 12° W 18:28:29 10° WNW visible
23 Dec 8.0 05:43:55 10° NNE 05:47:10 37° E 05:50:23 10° SSE visible
23 Dec 7.8 07:17:48 10° NNW 07:20:22 20° WNW 07:22:55 10° WSW visible
23 Dec 9.3 17:58:18 10° SSW 18:01:12 22° W 18:04:04 10° NW visible
24 Dec 9.2 05:18:55 10° NE 05:21:33 20° E 05:24:10 10° SE visible
24 Dec 7.0 06:51:54 10° N 06:55:05 34° WNW 06:58:13 10° SW visible
24 Dec 8.0 17:32:10 10° S 17:35:36 40° W 17:39:00 10° NNW visible
